Location: Bonningues
(50.7927°N, 2.0150°E)
Time: 16:28:31
(UTC+00:00)

Spot 4 - Pass Details

Date: 08 August 2020
Orbit: 705 x 722 km, 98.3° (Epoch: 19 September)

Event Time Altitude Azimuth Distance (km) Brightness Sun altitude
Exits shadow 23:06:32 48° 216° (SW) 925 4.1 -22.5°
Maximum altitude 23:07:27 57° 259° (W) 839 4.1 -22.5°
Drops below altitude 10° 23:12:13 10° 338° (NNW) 2,207 7.5 -22.7°
Sets 23:14:33 0° 343° (NNW) 3,135 8.6 -22.8°
